| time (UTC) | temp F | wind direction | speed knots | gust knots | rain 1hr in | rain 24hr in | rain mn in | humidity % | barometer mb |
| 20260504210004 | 67 | 183 | 9.6 | 17.4 | 0.00 | 0.00 | 0.00 | 33 | |
| 20260504205403 | 68 | 175 | 9.6 | 20.9 | 0.00 | 0.00 | 0.00 | 32 | |
| 20260504204714 | 68 | 180 | 10.4 | 20.9 | 0.00 | 0.00 | 0.00 | 33 | |
| 20260504203603 | 67 | 203 | 10.4 | 18.2 | 0.00 | 0.00 | 0.00 | 33 | |
| 20260504202703 | 66 | 207 | 9.6 | 16.5 | 0.00 | 0.00 | 0.00 | 35 | |
| 20260504201803 | 66 | 209 | 8.7 | 17.4 | 0.00 | 0.00 | 0.00 | 36 | |
| 20260504200903 | 66 | 204 | 8.7 | 18.2 | 0.00 | 0.00 | 0.00 | 36 | |
| 20260504200003 | 66 | 211 | 7.8 | 18.2 | 0.00 | 0.00 | 0.00 | 36 | |
| 20260504195403 | 66 | 216 | 8.7 | 18.2 | 0.00 | 0.00 | 0.00 | 36 | |
| 20260504194503 | 66 | 208 | 7.8 | 15.6 | 0.00 | 0.00 | 0.00 | 38 | |
| 20260504193813 | 67 | 198 | 7.0 | 15.6 | 0.00 | 0.00 | 0.00 | 36 | |
| 20260504192703 | 66 | 201 | 7.8 | 14.8 | 0.00 | 0.00 | 0.00 | 35 | |
| 20260504191803 | 66 | 212 | 7.8 | 19.1 | 0.00 | 0.00 | 0.00 | 38 | |
| 20260504191113 | 66 | 212 | 8.7 | 18.2 | 0.00 | 0.00 | 0.00 | 40 | |
| 20260504190003 | 65 | 193 | 8.7 | 16.5 | 0.00 | 0.00 | 0.00 | 39 | |
| 20260504185403 | 66 | 195 | 7.8 | 16.5 | 0.00 | 0.00 | 0.00 | 40 | |
| 20260504184503 | 65 | 188 | 8.7 | 16.5 | 0.00 | 0.00 | 0.00 | 41 | |
| 20260504183603 | 65 | 185 | 8.7 | 15.6 | 0.00 | 0.00 | 0.00 | 40 | |
| 20260504182703 | 64 | 177 | 8.7 | 14.8 | 0.00 | 0.00 | 0.00 | 39 | |
| 20260504181803 | 63 | 175 | 8.7 | 15.6 | 0.00 | 0.00 | 0.00 | 42 | |
| 20260504180903 | 64 | 194 | 10.4 | 20.0 | 0.00 | 0.00 | 0.00 | 42 | |
| 20260504180214 | 65 | 188 | 10.4 | 17.4 | 0.00 | 0.00 | 0.00 | 41 | |
| 20260504175403 | 63 | 186 | 10.4 | 19.1 | 0.00 | 0.00 | 0.00 | 43 | |
| 20260504174503 | 61 | 189 | 8.7 | 16.5 | 0.00 | 0.00 | 0.00 | 48 | |
| 20260504173603 | 61 | 195 | 8.7 | 18.2 | 0.00 | 0.00 | 0.00 | 45 | |
| 20260504172703 | 63 | 206 | 2.6 | 16.5 | 0.00 | 0.00 | 0.00 | 42 | |
| 20260504172013 | 62 | 234 | 0.9 | 3.5 | 0.00 | 0.00 | 0.00 | 45 | |
| 20260504170903 | 62 | 269 | 3.5 | 6.1 | 0.00 | 0.00 | 0.00 | 45 | |
| 20260504170214 | 62 | 273 | 3.5 | 6.1 | 0.00 | 0.00 | 0.00 | 47 | |
| 20260504150903 | 56 | 144 | 4.3 | 12.2 | 0.00 | 0.00 | 0.00 | 52 | |
| 20260504140903 | 54 | 171 | 1.7 | 2.6 | 0.00 | 0.00 | 0.00 | 65 | |
| 20260504081803 | 47 | 80 | 0.0 | 1.7 | 0.00 | 0.00 | 0.00 | 60 | |
| 20260504080903 | 47 | 80 | 0.9 | 3.5 | 0.00 | 0.00 | 0.00 | 57 | |
| 20260504050003 | 58 | 159 | 1.7 | 3.5 | 0.00 | 0.00 | 0.00 | 42 | |
| 20260504045613 | 58 | 154 | 1.7 | 5.2 | 0.00 | 0.00 | 0.00 | 42 | |
| 20260504044712 | 58 | 157 | 0.9 | 6.1 | 0.00 | 0.00 | 0.00 | 42 | |
| 20260504043603 | 59 | 284 | 0.0 | 1.7 | 0.00 | 0.00 | 0.00 | 40 | |
| 20260504042703 | 59 | 279 | 2.6 | 5.2 | 0.00 | 0.00 | 0.00 | 40 | |
| 20260504042012 | 60 | 257 | 1.7 | 5.2 | 0.00 | 0.00 | 0.00 | 39 | |
| 20260504040903 | 61 | 114 | 1.7 | 4.3 | 0.00 | 0.00 | 0.00 | 38 | |
| 20260504040003 | 61 | 121 | 4.3 | 10.4 | 0.00 | 0.00 | 0.00 | 37 | |
| 20260504035403 | 61 | 198 | 3.5 | 10.4 | 0.00 | 0.00 | 0.00 | 33 | |
| 20260504034505 | 61 | 121 | 1.7 | 2.6 | 0.00 | 0.00 | 0.00 | 38 | |
| 20260504033813 | 61 | 126 | 2.6 | 6.1 | 0.00 | 0.00 | 0.00 | 38 | |
| 20260504032703 | 60 | 180 | 2.6 | 6.1 | 0.00 | 0.00 | 0.00 | 39 | |
| 20260504031803 | 61 | 155 | 3.5 | 7.8 | 0.00 | 0.00 | 0.00 | 39 | |
| 20260504030903 | 61 | 144 | 4.3 | 11.3 | 0.00 | 0.00 | 0.00 | 39 | |
| 20260504030004 | 61 | 153 | 5.2 | 11.3 | 0.00 | 0.00 | 0.00 | 38 | |
| 20260504025403 | 61 | 147 | 5.2 | 13.9 | 0.00 | 0.00 | 0.00 | 38 | |
| 20260504024503 | 61 | 159 | 4.3 | 11.3 | 0.00 | 0.00 | 0.00 | 38 | |
| 20260504023603 | 60 | 119 | 3.5 | 8.7 | 0.00 | 0.00 | 0.00 | 39 | |
| 20260504022703 | 60 | 110 | 3.5 | 9.6 | 0.00 | 0.00 | 0.00 | 41 | |
| 20260504021803 | 60 | 96 | 6.1 | 14.8 | 0.00 | 0.00 | 0.00 | 41 | |
| 20260504020903 | 60 | 107 | 6.1 | 14.8 | 0.00 | 0.00 | 0.00 | 42 | |
| 20260504020003 | 60 | 110 | 6.1 | 14.8 | 0.00 | 0.00 | 0.00 | 42 | |
| 20260504015403 | 61 | 129 | 6.1 | 13.9 | 0.00 | 0.00 | 0.00 | 41 | |
| 20260504014503 | 62 | 139 | 5.2 | 13.0 | 0.00 | 0.00 | 0.00 | 39 | |
| 20260504013603 | 63 | 148 | 7.8 | 15.6 | 0.00 | 0.00 | 0.00 | 35 | |
| 20260504012914 | 64 | 149 | 9.6 | 18.2 | 0.00 | 0.00 | 0.00 | 34 | |
| 20260504011803 | 65 | 141 | 7.0 | 15.6 | 0.00 | 0.00 | 0.00 | 31 | |
| 20260504010903 | 65 | 149 | 6.1 | 11.3 | 0.00 | 0.00 | 0.00 | 31 | |
| 20260504010214 | 65 | 151 | 4.3 | 11.3 | 0.00 | 0.00 | 0.00 | 31 | |
| 20260504005403 | 65 | 153 | 5.2 | 13.0 | 0.00 | 0.00 | 0.00 | 31 | |
| 20260504004503 | 65 | 139 | 7.8 | 18.2 | 0.00 | 0.00 | 0.00 | 30 | |
| 20260504003603 | 66 | 141 | 10.4 | 18.2 | 0.00 | 0.00 | 0.00 | 30 | |
| 20260504002913 | 66 | 149 | 11.3 | 20.0 | 0.00 | 0.00 | 0.00 | 30 | |
| 20260504001803 | 68 | 156 | 6.1 | 23.5 | 0.00 | 0.00 | 0.00 | 28 | |
| 20260504000903 | 69 | 153 | 5.2 | 11.3 | 0.00 | 0.00 | 0.00 | 26 | |
| 20260504000003 | 70 | 153 | 7.0 | 13.9 | 0.00 | 0.00 | 0.00 | 25 | |
| 20260503235403 | 70 | 164 | 7.0 | 14.8 | 0.00 | 0.00 | 0.00 | 25 | |
| 20260503234503 | 71 | 154 | 8.7 | 15.6 | 0.00 | 0.00 | 0.00 | 25 | |
| 20260503233603 | 73 | 170 | 7.8 | 19.1 | 0.00 | 0.00 | 0.00 | 24 | |
| 20260503232703 | 74 | 187 | 5.2 | 11.3 | 0.00 | 0.00 | 0.00 | 23 | |
| 20260503232012 | 74 | 210 | 5.2 | 11.3 | 0.00 | 0.00 | 0.00 | 22 | |
| 20260503230903 | 75 | 191 | 5.2 | 15.6 | 0.00 | 0.00 | 0.00 | 23 | |
| 20260503230003 | 75 | 143 | 6.1 | 11.3 | 0.00 | 0.00 | 0.00 | 22 | |
| 20260503225403 | 74 | 132 | 6.1 | 11.3 | 0.00 | 0.00 | 0.00 | 21 | |
| 20260503224503 | 75 | 130 | 4.3 | 13.0 | 0.00 | 0.00 | 0.00 | 21 | |
| 20260503223813 | 74 | 112 | 4.3 | 8.7 | 0.00 | 0.00 | 0.00 | 22 | |
| 20260503222703 | 75 | 164 | 4.3 | 9.6 | 0.00 | 0.00 | 0.00 | 22 | |
| 20260503221803 | 76 | 230 | 7.0 | 13.0 | 0.00 | 0.00 | 0.00 | 23 | |
| 20260503221113 | 76 | 210 | 7.0 | 13.0 | 0.00 | 0.00 | 0.00 | 22 | |
| 20260503220003 | 77 | 191 | 5.2 | 12.2 | 0.00 | 0.00 | 0.00 | 21 | |
| 20260503215403 | 76 | 171 | 6.1 | 12.2 | 0.00 | 0.00 | 0.00 | 21 | |
| 20260503214503 | 76 | 184 | 6.1 | 15.6 | 0.00 | 0.00 | 0.00 | 21 | |
| 20260503213603 | 76 | 166 | 6.1 | 11.3 | 0.00 | 0.00 | 0.00 | 22 | |
| 20260503212703 | 76 | 187 | 8.7 | 15.6 | 0.00 | 0.00 | 0.00 | 21 | |
| 20260503211803 | 77 | 209 | 7.8 | 15.6 | 0.00 | 0.00 | 0.00 | 21 | |
| 20260503210903 | 76 | 194 | 6.1 | 18.2 | 0.00 | 0.00 | 0.00 | 22 |